LEMUR-2-BAXTER-OLIVER (46925 NORAD) Tracking and Keplerian Element Data
This shows tracking and keplerian element data for the satellite.
Feedback or suggestion? Click here.
Element | Value |
Catalog | 46925 |
Name | LEMUR-2-BAXTER-OLIVER |
Epoch Orbit | 1193 |
Epoch Day | 21.18783884 |
Epoch Year | 2021 |
RAAN | 348.4014 |
Inclination | 51.644 |
Eccentricity | 0.0001186 |
Argument of Perigee | 350.278 |
Mean Anonmoly | 9.8187 |
Mean Motion | 15.53149581 |
Decay Rate | 0.00017474 |
L1 | 1 46925U 98067RV 21021.18783884 .00017474 00000-0 28033-3 0 9991 |
L2 | 2 46925 51.6440 348.4014 0001186 350.2780 9.8187 15.53149581 11932 |
Live tracking and technical data element details for LEMUR-2-BAXTER-OLIVER (NORAD 46925). LEMUR-2-BAXTER-OLIVER can be tracked NOW for your location showing map with azimuth and elevation plus other details from your city location.
Track the satellite on the map from your city or location and see movement details for azimuth, elevation, latitude, longitude, range, height, and movement on the map or in text.
IsCatalogInMostPopularTable: catalog: 46925, numindb: 23
Update: records affected: 1
GetName: 46925 LEMUR-2-BAXTER-OLIVER
Hit Count: updated at: Fri, 22 Jan 2021 20:09:37 GMT